User: anonymous   Login
Location: Coopersdale
(40.3556°N, 78.9372°W)
Time: 17:55:38
(UTC+00:00)
Language:

Tiros 1 despin weight - Orbit

View from above orbital plane
View from above orbital plane
View from above satellite
View from above satellite

Ground track
Ground track

The orbit data is extracted from the following two-line orbital elements,

1 00115U 60002D   21206.85030886  .00000105  00000-0  39341-4 0  9994
2 00115  48.1664 134.1568 0034788 228.2456 131.5481 14.83798726251719
Epoch (UTC): 25 July 2021 20:24:26
Eccentricity: 0.0034788
inclination: 48.1664°
perigee height: 593 km
apogee height: 642 km
right ascension of ascending node: 134.1568°
argument of perigee: 228.2456°
revolutions per day: 14.83798726
mean anomaly at epoch: 131.5481°
orbit number at epoch: 25171

The dashed part of the orbit path shows where the satellite is in the earth's shadow,  

DLR